Change the Weather History Date:

Wednesday, August 13, 2014

  Actual Average Record
Temperature  
Mean Temperature 76 °F -  
Max Temperature 84 °F 83 °F 102 °F (2005)
Min Temperature 69 °F 64 °F 55 °F (2006)
Cooling Degree Days 12    
Growing Degree Days 26 (Base 50)    
Moisture  
Dew Point 66 °F    
Average Humidity 80    
Maximum Humidity 94    
Minimum Humidity 48    
Precipitation  
Precipitation 0.59 in - - ()
Sea Level Pressure  
Sea Level Pressure 29.72 in    
Wind  
Wind Speed 11 mph (NNE)    
Max Wind Speed 18 mph    
Max Gust Speed 34 mph    
Visibility 7 miles    
Events Rain    
Averages and records for this station are not official NWS values.
T = Trace of Precipitation, MM = Missing Value Source: NWS Daily Summary

Daily Weather History Graph

Daily Weather History Graph

Search for Another Location

Airport or City:

Trip Planner

Search our weather history database for the weather conditions in past years. The results will help you decide how hot, cold, wet, or windy it might be!

Date:

Astronomy

Aug. 13, 2014 Rise Set
Actual Time 6:04 AM EDT 7:57 PM EDT
Civil Twilight 5:34 AM EDT 8:26 PM EDT
Nautical Twilight 4:58 AM EDT 9:02 PM EDT
Astronomical Twilight 4:19 AM EDT 9:41 PM EDT
Moon 9:38 PM EDT (8/13) 9:31 AM EDT (8/13)
Length of Visible Light 14h 52m
Length of Day
13h 52m
Waning Gibbous, 88% of the Moon is Illuminated
Aug 13
Waning Gibbous
Aug 17
Last Quarter
Aug 25
New
Sep 2
First Quarter
Sep 8
Full

Hourly Weather History & Observations

Time (EDT) Temp. Heat Index Dew Point Humidity Pressure Visibility Wind Dir Wind Speed Gust Speed Precip Events Conditions
12:51 AM 72.0 °F - 66.9 °F 84% 29.83 in 5.0 mi ESE 12.7 mph 23.0 mph 0.03 in Rain Light Rain
1:21 AM 71.6 °F - 66.2 °F 83% 29.82 in 5.0 mi ESE 11.5 mph 21.9 mph 0.07 in Rain Rain
1:51 AM 72.0 °F - 66.9 °F 84% 29.82 in 5.0 mi SSE 18.4 mph 26.5 mph 0.22 in Rain Rain
2:18 AM 69.8 °F - 66.2 °F 88% 29.79 in 5.0 mi SE 12.7 mph 21.9 mph 0.13 in Rain Rain
2:31 AM 69.8 °F - 66.2 °F 88% 29.77 in 7.0 mi ESE 13.8 mph 21.9 mph 0.17 in Rain Rain
2:51 AM 70.0 °F - 66.9 °F 90% 29.77 in 5.0 mi ESE 12.7 mph 28.8 mph 0.19 in Rain Rain
3:14 AM 69.8 °F - 68.0 °F 94% 29.75 in 5.0 mi ESE 12.7 mph 31.1 mph 0.03 in Rain Rain
3:48 AM 69.8 °F - 66.2 °F 88% 29.71 in 5.0 mi East 18.4 mph 27.6 mph 0.04 in Rain Rain
3:51 AM 70.0 °F - 66.0 °F 87% 29.72 in 5.0 mi ESE 13.8 mph 27.6 mph 0.04 in Rain Rain
4:12 AM 69.8 °F - 64.4 °F 83% 29.72 in 10.0 mi East 13.8 mph 24.2 mph 0.00 in Rain Rain
4:22 AM 71.6 °F - 64.4 °F 78% 29.72 in 10.0 mi East 10.4 mph 24.2 mph 0.00 in Rain Rain
4:51 AM 71.6 °F - 66.2 °F 83% 29.72 in 10.0 mi East 10.4 mph - N/A Rain Rain
5:51 AM 69.1 °F - 64.0 °F 84% 29.72 in 10.0 mi East 8.1 mph 19.6 mph 0.00 in Rain Rain
6:30 AM 69.8 °F - 64.4 °F 83% 29.72 in 2.5 mi ENE 9.2 mph - 0.01 in Rain Light Rain
6:37 AM 69.8 °F - 66.2 °F 88% 29.72 in 3.0 mi NNE 5.8 mph - 0.01 in Rain Light Rain
6:40 AM 69.8 °F - 66.2 °F 88% 29.71 in 2.5 mi Variable 5.8 mph - 0.02 in Rain Light Rain
6:51 AM 70.0 °F - 66.0 °F 87% 29.71 in 2.5 mi Variable 4.6 mph - 0.03 in Rain Light Rain
7:09 AM 69.8 °F - 66.2 °F 88% 29.70 in 2.5 mi ENE 6.9 mph - 0.01 in Rain Light Rain
7:58 AM 69.8 °F - 66.2 °F 88% 29.70 in 5.0 mi North 5.8 mph - 0.00 in Rain Light Rain
10:51 AM 73.0 °F - 68.0 °F 84% 29.68 in 5.0 mi North 10.4 mph - 0.01 in Rain Light Rain
11:15 AM 73.4 °F - 68.0 °F 83% 29.68 in 6.0 mi NW 9.2 mph - 0.00 in Rain Light Rain
11:31 AM 75.2 °F - 68.0 °F 78% 29.68 in 8.0 mi NW 6.9 mph - 0.00 in   Overcast
11:51 AM 75.0 °F - 66.9 °F 76% 29.68 in 8.0 mi NW 6.9 mph - 0.00 in   Overcast
12:51 PM 75.0 °F - 66.0 °F 73% 29.68 in 10.0 mi NW 10.4 mph - N/A   Overcast
1:51 PM 78.1 °F - 66.9 °F 68% 29.67 in 10.0 mi NW 11.5 mph 18.4 mph N/A   Overcast
2:51 PM 81.0 °F 83.0 °F 66.0 °F 60% 29.65 in 10.0 mi NW 9.2 mph - N/A   Mostly Cloudy
3:51 PM 82.9 °F 84.6 °F 64.9 °F 54% 29.64 in 10.0 mi NW 10.4 mph - N/A   Scattered Clouds
4:51 PM 84.2 °F 85.0 °F 62.6 °F 48% 29.64 in 10.0 mi West 11.5 mph 19.6 mph N/A   Scattered Clouds
5:51 PM 72.0 °F - 63.0 °F 73% 29.66 in 10.0 mi NW 13.8 mph 34.5 mph 0.06 in Rain Light Rain
6:51 PM 75.0 °F - 66.9 °F 76% 29.68 in 10.0 mi WNW 8.1 mph - 0.01 in   Overcast
7:51 PM 73.9 °F - 66.0 °F 76% 29.70 in 10.0 mi West 3.5 mph - N/A   Clear
8:51 PM 73.0 °F - 64.9 °F 76% 29.73 in 10.0 mi West 5.8 mph - N/A   Clear
9:51 PM 72.0 °F - 64.0 °F 76% 29.75 in 10.0 mi West 3.5 mph - N/A   Clear
10:51 PM 72.0 °F - 62.1 °F 71% 29.76 in 10.0 mi WNW 5.8 mph - N/A   Partly Cloudy